Tracking 29892 objects as of 21-Nov-2024
HD Live streaming from Space Station
objects crossing your sky now

CZ-6A DEB

Track CZ-6A DEB now!
10-day predictions


NORAD ID: 54609
Int'l Code: 2022-151NK
Perigee: 748.1 km
Apogee: 806.7 km
Inclination: 98.8 °
Period: 100.2 minutes
Semi major axis: 7148 km
RCS: Unknown
Launch date: November 11, 2022
Source: People's Republic of China (PRC)
Launch site: Taiyaun Space Center, China (TSC)

Note: This is SATELLITE DEBRIS
Your satellite tracking list
Your tracking list is empty




NASA's NSSDC Master Catalog

Two Line Element Set (TLE):
1 54609U 22151NK  24324.98325540  .00010806  00000-0  36607-2 0  9995
2 54609  98.7591 343.8919 0040983 194.8360 165.1626 14.36450772104806
Source of the keplerian elements: AFSPC